Location: Unspecified
(47.6578°N, 23.5640°E)
Time: 06:22:24
(UTC+02:00)

ISS - Pass Details

Date: 09 December 2017
Orbit: 403 x 407 km, 51.6° (Epoch: 12 December)

Event Time Altitude Azimuth Distance (km) Brightness Sun altitude
Rises 19:19:52 0° 293° (WNW) 2,332 1.0 -26.9°
Reaches altitude 10° 19:21:57 10° 294° (WNW) 1,468 -0.2 -27.2°
Enters shadow 19:22:57 18° 294° (WNW) 1,069 -1.1 -27.4°
